Location: ?
(35.4214°N, 139.3011°E)
Time: 22:36:17
(UTC+00:00)

Hubble Space Telescope - Pass Details

Date: 14 July 2020
Orbit: 536 x 540 km, 28.5° (Epoch: 10 August)

Event Time Altitude Azimuth Distance (km) Brightness Sun altitude
Rises 11:12:40 0° 257° (WSW) 2,669 4.9 -13.4°
Reaches altitude 10° 11:15:07 10° 246° (WSW) 1,779 3.8 -13.8°
Maximum altitude 11:18:42 29° 186° (S) 991 1.8 -14.4°
Enters shadow 11:20:01 24° 152° (SSE) 1,129 1.9 -14.6°
